Regional Weather Roundup
Issued by NWS

Home | Current Version | Previous Version | Text Only | Print | Product List | Glossary Off
Versions: 1 2 3 4 5 6 7 8 9 10 11 12 13 14 15 16 17 18 19 20 21 22 23 24 25 26 27 28 29 30 31 32 33 34 35 36 37 38 39 40 41 42 43 44 45 46 47 48 49 50

000
ASUS43 KLOT 251603
RWRIL

ILLINOIS REGIONAL WEATHER ROUNDUP
NATIONAL WEATHER SERVICE CHICAGO/ROMEOVILLE IL
1100 AM CDT SAT MAR 25 2017

NOTE: "FAIR" INDICATES FEW OR NO CLOUDS BELOW 12,000 FEET WITH NO
SIGNIFICANT WEATHER AND/OR OBSTRUCTIONS TO VISIBILITY.

* THESE STATIONS ARE NOT UNDER NWS QUALITY CONTROL. THEY ALSO MAY NOT
  REPORT WEATHER SUCH AS PRECIPITATION OR FOG.

ILZ001-002-007-009-015-016-024-251700-
NORTHWEST ILLINOIS

CITY           SKY/WX    TMP DP  RH WIND       PRES   REMARKS
MOLINE         CLOUDY    43  41  93 NE15      29.93R FOG
STERLING*      LGT RAIN  42  41  96 E21G26    29.97R FOG
SAVANNA*       RAIN      41  40  95 NE17G23   29.97R
$$

ILZ003-004-008-010-011-017-018-251700-
NORTH CENTRAL ILLINOIS

CITY           SKY/WX    TMP DP  RH WIND       PRES   REMARKS
ROCKFORD       LGT RAIN  42  39  89 NE17G31   30.02F
FREEPORT*      LGT RAIN  40  39  97 NE16G29   30.01F
ROCHELLE*      RAIN      41  40  97 NE22G28   29.99S
DE KALB*       LGT RAIN  41  40  97 NE17      30.01R
$$

ILZ005-006-012>014-019>023-251700-
NORTHEAST ILLINOIS

CITY           SKY/WX    TMP DP  RH WIND       PRES   REMARKS
CHICAGO-OHARE  LGT RAIN  42  39  89 NE16      30.05S FOG
CHICAGO-MIDWAY LGT RAIN  43  42  97 N12       30.04R FOG
AURORA         LGT RAIN  43  41  93 NE23      30.00S FOG
LANSING*       CLOUDY    42  42 100 N5        30.04S FOG
JOLIET*        CLOUDY    46  45  97 NE9       30.01S
WAUKEGAN       LGT RAIN  39  38  96 NE15G25   30.08F FOG     WCI  31
DUPAGE AIRPORT LGT RAIN  42  42 100 NE15G23   30.02R
WHEELING       LGT RAIN  39  39 100 NE16G23   30.07S FOG     WCI  30
MORRIS*        CLOUDY    46  44  95 E9        29.99S FOG
NORTHERLY ISL    N/A     39  38  96 MISG        N/A
$$

LMZ740>746-251700-
SOUTHERN LAKE MICHIGAN

STATION/POSITION SKY/WX   TEMP    WIND        PRES    VSBY  WAVE
                          AIR SEA DIR/SP/G                  HT/PER
                          (F)     (DEG/KT/KT) (MB)    (MI)  (FT/S)
HARRISON CRIB                     360/  9/ 10   N/A
BURNHAM HARBOR                    350/  9/ 16   N/A
CALUMET HARBOR                    340/  9/ 11 1016.9R
BURNS HARBOR               41      60/ 10/ 11 1017.3S
MICHIGAN CITY              49      70/  7/  8   N/A
$$

ILZ025>027-034>036-040-047-049-050-058-095>099-251700-
WEST-CENTRAL ILLINOIS

CITY           SKY/WX    TMP DP  RH WIND       PRES   REMARKS
QUINCY         MOSUNNY   62  55  77 SW13      29.86R
GALESBURG*     CLOUDY    48  48 100 E12       29.89R FOG
MACOMB*        CLOUDY    53  53 100 CALM      29.89R FOG
JACKSONVILLE*  CLOUDY    62  55  79 S15G22    29.89R
PITTSFIELD*    MOSUNNY   61  55  82 S15       29.88R
$$

ILZ028>032-037-038-041>044-048-051>054-059>061-251700-
CENTRAL ILLINOIS

CITY           SKY/WX    TMP DP  RH WIND       PRES   REMARKS
PONTIAC        CLOUDY    56  55  96 E16       29.97S
BLOOMINGTON    CLOUDY    63  55  75 S21       29.94S
DECATUR        CLOUDY    64  51  62 S22G30    29.93R
PEORIA         CLOUDY    57  55  93 E7        29.90S
SPRINGFIELD    MOSUNNY   64  56  75 S20       29.90R
TAYLORVILLE    NOT AVBL
$$

ILZ033-039-045-046-055>057-062-063-251700-
EAST-CENTRAL ILLINOIS

CITY           SKY/WX    TMP DP  RH WIND       PRES   REMARKS
CHAMPAIGN      PTSUNNY   66  52  60 S23       29.96R
RANTOUL*       CLOUDY    67  57  69 S23       29.96R
MATTOON        CLOUDY    65  53  65 S12G21    29.93F
PARIS*         CLOUDY    67  54  63 S18       29.97F
$$

ILZ079-100>102-251700-
SOUTHWEST ILLINOIS

CITY           SKY/WX    TMP DP  RH WIND       PRES   REMARKS
ALTON          CLOUDY    59  54  82 S14       29.91R
BELLEVILLE     MOSUNNY   61  59  93 SE12      29.90S
CAHOKIA*       CLOUDY    61  54  77 S12G21    29.90S
SPARTA*        CLOUDY    61  55  80 S14G21    29.91F
$$

ILZ064>066-069>071-074>076-080>082-084>086-088>090-092>094-251700-
SOUTH-CENTRAL ILLINOIS

CITY           SKY/WX    TMP DP  RH WIND       PRES   REMARKS
CARBONDALE     CLOUDY    64  56  75 S22G30    29.92S
CAIRO*         CLOUDY    62  58  86 S15G24    29.94S
EFFINGHAM*     CLOUDY    64  55  71 SE15      29.96S
MARION         PTSUNNY   66  59  77 S14G23    29.94S
MT. VERNON     PTSUNNY   65  54  67 SE13G21   29.94R
CENTRALIA*     CLOUDY    67  57  71 SE15G25   29.91F
SALEM*         CLOUDY    65  53  66 SE8       29.93S
$$

ILZ067-068-072-073-078-083-087-091-251700-
SOUTHEAST ILLINOIS

CITY           SKY/WX    TMP DP  RH WIND       PRES   REMARKS
LAWRENCEVILLE  CLOUDY    69  55  60 SE22      29.97F
FLORA*         CLOUDY    66  55  68 S13       29.95S
FAIRFIELD*     CLOUDY    63  55  76 SE7       29.94F
HARRISBURG*    CLOUDY    62  58  87 SE6       29.96S
ROBINSON*      CLOUDY    68  54  61 S20       29.97S
CARMI*         CLOUDY    65  56  71 S21       29.96R
$$

ABBREVIATIONS USED IN REMARKS
   TC - TEMPERATURE IN CELSIUS
  WCI - WIND CHILL INDEX
   HX - HEAT INDEX
  VSB - VISIBILITY
$$





USA.gov is the U.S. government's official web portal to all federal, state and local government web resources and services.